Regional Weather Roundup
Issued by NWS

Home | Current Version | Previous Version | Text Only | Print | Product List | Glossary On
Versions: 1 2 3 4 5 6 7 8 9 10 11 12 13 14 15 16 17 18 19 20 21 22 23 24 25 26 27 28 29 30 31 32 33 34 35 36 37 38 39 40 41 42 43 44 45 46 47 48 49 50
000
ASUS43 KLSX 201207
RWRMO

WEATHER SUMMARY FOR MISSOURI
NATIONAL WEATHER SERVICE SPRINGFIELD MO
700 AM CDT SUN AUG 20 2017

NOTE: "FAIR" INDICATES FEW OR NO CLOUDS BELOW 12,000 FEET WITH NO
       SIGNIFICANT WEATHER AND/OR OBSTRUCTIONS TO VISIBILITY.
       CURRENT SKY AND/OR WEATHER CONDITIONS ARE NOT AVAILABLE FOR
       CHILLICOTHE AND FARMINGTON.

MOZ001>031-035>038-043-044-053-054-201300-
...NORTHERN AND WESTERN MISSOURI...

CITY           SKY/WX    TMP DP  RH WIND       PRES   REMARKS
KANSAS CTY INT TSTM      69  66  90 SE12      29.99F
6HR MIN TEMP:  68; 6HR MAX TEMP:  80; 6HR PCP:  0.76;

KANSAS C DTWN  TSTM      71  69  93 E3        30.00F
6HR MIN TEMP:  70; 6HR MAX TEMP:  84; 6HR PCP:  0.42;

LEE`S SUMMIT   CLOUDY    68  68 100 NE5       30.03F
6HR MIN TEMP:  68; 6HR MAX TEMP:  79; 6HR PCP:  0.10;

ST JOSEPH      TSTM      68  68 100 SW8       30.01R
6HR MIN TEMP:  68; 6HR MAX TEMP:  77; 6HR PCP:  0.31;

CHILLICOTHE      N/A     69  69 100 SE7       30.05R
6HR MIN TEMP:  69; 6HR MAX TEMP:  75; 6HR PCP:  0.41;

KIRKSVILLE     TSTM      69  66  90 NW12G22   30.05R FOG
6HR MIN TEMP:  61; 6HR MAX TEMP:  73; 6HR PCP:  0.05;


$$
MOZ066>068-077>081-088>096-101>105-201300-
...SOUTHWEST MISSOURI...

CITY           SKY/WX    TMP DP  RH WIND       PRES   REMARKS
SPRINGFIELD    PTCLDY    75  74  96 S6        30.00R
6HR MIN TEMP:  75; 6HR MAX TEMP:  79;

JOPLIN         CLEAR     80  76  87 SW8       29.98R
6HR MIN TEMP:  80; 6HR MAX TEMP:  82;

BRANSON        PTCLDY    75  73  94 S6        30.03S

$$
MOZ032>034-039>042-045>050-055>058-069>072-201300-
...CENTRAL MISSOURI...

CITY           SKY/WX    TMP DP  RH WIND       PRES   REMARKS
COLUMBIA       CLOUDY    71  70  96 SE5       30.00R
6HR MIN TEMP:  70; 6HR MAX TEMP:  75;

JEFFERSON CITY PTCLDY    70  70 100 E3        29.99R
6HR MIN TEMP:  68; 6HR MAX TEMP:  72;

ROLLA          CLOUDY    72  71  97 S8        30.02R
6HR MIN TEMP:  68; 6HR MAX TEMP:  72;

SEDALIA        CLOUDY    77  75  93 S6        30.00R
6HR MIN TEMP:  71; 6HR MAX TEMP:  78;

WHITEMAN AFB   TSTM      73  73 100 N24G35    30.02R
WARRENSBURG    TSTM      70  64  83 N14G26    30.04R
OSAGE BEACH    CLOUDY    72  71  97 CALM      30.01R

$$
MOZ051-052-059>065-201300-
...EAST CENTRAL MISSOURI...

CITY           SKY/WX    TMP DP  RH WIND       PRES   REMARKS
ST LOUIS INTL  MOCLDY    75  70  84 CALM      30.00R
6HR MIN TEMP:  74; 6HR MAX TEMP:  79;

SPIRIT OF STL  MOCLDY    69  69 100 SW3       29.98S
6HR MIN TEMP:  68; 6HR MAX TEMP:  71;

ST CHARLES     CLOUDY    69  68  96 E3        29.98S
6HR MIN TEMP:  67; 6HR MAX TEMP:  72;


$$
MOZ072>076-082>087-097>100-106>115-201300-
...SOUTH CENTRAL AND SOUTHEAST MISSOURI...

CITY           SKY/WX    TMP DP  RH WIND       PRES   REMARKS
CAPE GIRARDEAU FOG       69  67  93 SE3       30.01R VSB 1/2
6HR MIN TEMP:  67; 6HR MAX TEMP:  74;

FARMINGTON     CLEAR     67  67 100 CALM      30.03R FOG
6HR MIN TEMP:  66; 6HR MAX TEMP:  72;

POPLAR BLUFF   FOG       70  70 100 CALM      30.01R VSB 1/4
6HR MIN TEMP:  68; 6HR MAX TEMP:  75;

WEST PLAINS    CLOUDY    75  71  87 SW3       30.04R
6HR MIN TEMP:  72; 6HR MAX TEMP:  75;


$$



USA.gov is the U.S. government's official web portal to all federal, state and local government web resources and services.